DAL2145 KMSP-KSAN

Flight info

Callsign DAL2145
Flight time 3h 38m
Altitude 34000
Route SCHEP1 RXANN TEYOU ONL J114 YANKI FQF J128 TBC PLNDL Q86 TTRUE LUCKI1
Aircraft A321/M-SDE3FGHIRWY/LB1

Departure

Time 2026-04-25 23:04
Airport Minneapolis–Saint Paul International Airport / Wold–Chamberlain Field (KMSP)

Arrival

Time 2026-04-26 02:42
Airport San Diego International Airport (KSAN)
Time Latitude Longitude Altitude Speed Heading
2026-04-25 22:45 44.88396 -93.21666 840 ft 0 kts 110°
2026-04-25 22:54 44.88398 -93.21673 840 ft 2 kts 110°
2026-04-25 22:54 44.88405 -93.21698 830 ft 3 kts 113°
2026-04-25 22:54 44.88414 -93.21724 831 ft 3 kts 118°
2026-04-25 22:54 44.88424 -93.21747 835 ft 3 kts 136°
2026-04-25 22:55 44.88437 -93.21760 830 ft 3 kts 189°
2026-04-25 22:55 44.88443 -93.21758 832 ft 0 kts 225°
2026-04-25 22:58 44.88432 -93.21774 831 ft 8 kts 225°
2026-04-25 22:58 44.88386 -93.21838 834 ft 9 kts 225°
2026-04-25 22:58 44.88345 -93.21893 833 ft 8 kts 220°
2026-04-25 22:58 44.88298 -93.21932 833 ft 8 kts 195°
2026-04-25 22:59 44.88255 -93.21901 827 ft 7 kts 130°
2026-04-25 22:59 44.88228 -93.21843 831 ft 10 kts 122°
2026-04-25 22:59 44.88170 -93.21711 834 ft 18 kts 121°
2026-04-25 22:59 44.88111 -93.21571 834 ft 16 kts 122°
2026-04-25 23:00 44.88053 -93.21439 832 ft 16 kts 122°
2026-04-25 23:00 44.87999 -93.21315 833 ft 14 kts 121°
2026-04-25 23:00 44.87953 -93.21207 832 ft 12 kts 121°
2026-04-25 23:00 44.87907 -93.21101 834 ft 15 kts 121°
2026-04-25 23:01 44.87848 -93.20964 830 ft 16 kts 122°
2026-04-25 23:01 44.87791 -93.20832 833 ft 16 kts 121°
2026-04-25 23:01 44.87733 -93.20701 833 ft 15 kts 121°
2026-04-25 23:01 44.87678 -93.20574 830 ft 16 kts 121°
2026-04-25 23:02 44.87609 -93.20414 826 ft 22 kts 121°
2026-04-25 23:02 44.87537 -93.20248 828 ft 16 kts 122°
2026-04-25 23:02 44.87484 -93.20128 825 ft 12 kts 123°
2026-04-25 23:02 44.87425 -93.20092 830 ft 8 kts 189°
2026-04-25 23:03 44.87378 -93.20127 829 ft 8 kts 230°
2026-04-25 23:03 44.87387 -93.20206 824 ft 13 kts 301°
2026-04-25 23:03 44.87547 -93.20575 824 ft 81 kts 301°
2026-04-25 23:03 44.87950 -93.21501 826 ft 140 kts 301°
2026-04-25 23:04 44.88541 -93.22858 878 ft 180 kts 301°
2026-04-25 23:04 44.88987 -93.23862 1288 ft 178 kts 302°
2026-04-25 23:04 44.89858 -93.25799 2285 ft 175 kts 304°
2026-04-25 23:04 44.90441 -93.27282 2826 ft 176 kts 293°
2026-04-25 23:05 44.90720 -93.28989 3194 ft 183 kts 270°
2026-04-25 23:05 44.90500 -93.30779 3460 ft 190 kts 239°
2026-04-25 23:05 44.89749 -93.32370 3658 ft 202 kts 229°
2026-04-25 23:05 44.88798 -93.33921 3854 ft 216 kts 222°
2026-04-25 23:06 44.87672 -93.35394 4105 ft 228 kts 218°
2026-04-25 23:06 44.86408 -93.36914 4317 ft 252 kts 217°
2026-04-25 23:06 44.85033 -93.38534 4951 ft 259 kts 218°
2026-04-25 23:06 44.83738 -93.40315 5744 ft 261 kts 223°
2026-04-25 23:07 44.82478 -93.42161 6540 ft 262 kts 223°
2026-04-25 23:07 44.81213 -93.44009 7295 ft 262 kts 224°
2026-04-25 23:07 44.79963 -93.45853 8153 ft 258 kts 225°
2026-04-25 23:07 44.78771 -93.47722 9036 ft 254 kts 229°
2026-04-25 23:08 44.77675 -93.49645 9935 ft 249 kts 231°
2026-04-25 23:08 44.76609 -93.51576 10501 ft 257 kts 231°
2026-04-25 23:08 44.75484 -93.53643 10716 ft 275 kts 232°
2026-04-25 23:08 44.74279 -93.55827 10998 ft 290 kts 230°
2026-04-25 23:09 44.72962 -93.58015 11306 ft 305 kts 227°
2026-04-25 23:09 44.71423 -93.60217 11354 ft 326 kts 224°
2026-04-25 23:09 44.69780 -93.62509 11551 ft 340 kts 227°
2026-04-25 23:09 44.68312 -93.65160 11992 ft 346 kts 232°
2026-04-25 23:10 44.66880 -93.67909 12543 ft 349 kts 232°
2026-04-25 23:10 44.65453 -93.70631 13395 ft 346 kts 232°
2026-04-25 23:10 44.64004 -93.73378 13840 ft 354 kts 232°
2026-04-25 23:10 44.62538 -93.76145 14490 ft 352 kts 232°
2026-04-25 23:11 44.61074 -93.78899 15074 ft 354 kts 232°
2026-04-25 23:11 44.59600 -93.81705 15467 ft 360 kts 233°
2026-04-25 23:11 44.58122 -93.84572 15902 ft 365 kts 234°
2026-04-25 23:11 44.56643 -93.87495 16367 ft 369 kts 234°
2026-04-25 23:12 44.55166 -93.90458 16852 ft 372 kts 234°
2026-04-25 23:12 44.53676 -93.93436 17349 ft 375 kts 234°
2026-04-25 23:12 44.52165 -93.96423 17877 ft 376 kts 234°
2026-04-25 23:12 44.50636 -93.99411 18425 ft 378 kts 234°
2026-04-25 23:13 44.49057 -94.02385 18765 ft 383 kts 232°
2026-04-25 23:13 44.47421 -94.05348 19167 ft 386 kts 232°
2026-04-25 23:13 44.45772 -94.08328 19585 ft 389 kts 232°
2026-04-25 23:13 44.44127 -94.11345 20008 ft 391 kts 233°
2026-04-25 23:14 44.42491 -94.14399 20436 ft 394 kts 233°
2026-04-25 23:14 44.40858 -94.17487 20849 ft 396 kts 234°
2026-04-25 23:14 44.39224 -94.20599 21248 ft 399 kts 234°
2026-04-25 23:14 44.37569 -94.23747 21577 ft 403 kts 234°
2026-04-25 23:15 44.35898 -94.26909 21967 ft 406 kts 233°
2026-04-25 23:15 44.34209 -94.30088 22381 ft 408 kts 233°
2026-04-25 23:15 44.32511 -94.33275 22772 ft 411 kts 233°
2026-04-25 23:15 44.30802 -94.36480 23162 ft 413 kts 233°
2026-04-25 23:16 44.29083 -94.39707 23533 ft 415 kts 233°
2026-04-25 23:16 44.27377 -94.42904 23865 ft 417 kts 233°
2026-04-25 23:16 44.25641 -94.46153 24184 ft 419 kts 233°
2026-04-25 23:16 44.23896 -94.49415 24527 ft 420 kts 233°
2026-04-25 23:17 44.22151 -94.52682 24872 ft 421 kts 233°
2026-04-25 23:17 44.20398 -94.55961 25217 ft 422 kts 233°
2026-04-25 23:17 44.18639 -94.59249 25574 ft 423 kts 233°
2026-04-25 23:17 44.16878 -94.62539 25900 ft 424 kts 233°
2026-04-25 23:18 44.15114 -94.65828 26330 ft 422 kts 233°
2026-04-25 23:18 44.13359 -94.69093 26827 ft 420 kts 233°
2026-04-25 23:18 44.11610 -94.72341 27228 ft 419 kts 233°
2026-04-25 23:18 44.09863 -94.75588 27615 ft 418 kts 233°
2026-04-25 23:19 44.08120 -94.78817 28057 ft 417 kts 233°
2026-04-25 23:19 44.06381 -94.82034 28502 ft 415 kts 233°
2026-04-25 23:19 44.04653 -94.85233 28946 ft 413 kts 233°
2026-04-25 23:19 44.02935 -94.88412 29392 ft 411 kts 233°
2026-04-25 23:20 44.01221 -94.91580 29821 ft 409 kts 233°
2026-04-25 23:20 43.99511 -94.94734 30240 ft 407 kts 233°
2026-04-25 23:20 43.97828 -94.97886 30603 ft 406 kts 234°
2026-04-25 23:20 43.96178 -95.01056 30964 ft 404 kts 234°
2026-04-25 23:21 43.94551 -95.04223 31357 ft 402 kts 234°
2026-04-25 23:21 43.92934 -95.07377 31760 ft 400 kts 234°
2026-04-25 23:21 43.91322 -95.10505 32144 ft 398 kts 235°
2026-04-25 23:21 43.89709 -95.13616 32489 ft 397 kts 235°
2026-04-25 23:22 43.88091 -95.16718 32856 ft 396 kts 235°
2026-04-25 23:22 43.86478 -95.19800 33226 ft 395 kts 235°
2026-04-25 23:22 43.84867 -95.22875 33600 ft 393 kts 235°
2026-04-25 23:23 43.81663 -95.28979 34082 ft 391 kts 235°
2026-04-25 23:23 43.78467 -95.35058 34086 ft 390 kts 235°
2026-04-25 23:24 43.75277 -95.41110 34074 ft 389 kts 235°
2026-04-25 23:24 43.72087 -95.47156 34065 ft 389 kts 235°
2026-04-25 23:25 43.68898 -95.53206 34053 ft 390 kts 235°
2026-04-25 23:25 43.65717 -95.59225 34064 ft 391 kts 235°
2026-04-25 23:26 43.62508 -95.65273 34091 ft 391 kts 235°
2026-04-25 23:26 43.59296 -95.71320 34095 ft 391 kts 234°
2026-04-25 23:27 43.56074 -95.77366 34080 ft 392 kts 234°
2026-04-25 23:27 43.52843 -95.83417 34070 ft 392 kts 234°
2026-04-25 23:28 43.49612 -95.89459 34058 ft 392 kts 234°
2026-04-25 23:28 43.46424 -95.95413 34056 ft 393 kts 234°
2026-04-25 23:29 43.43172 -96.01461 34053 ft 393 kts 234°
2026-04-25 23:29 43.39908 -96.07505 34052 ft 394 kts 234°
2026-04-25 23:30 43.36639 -96.13547 34057 ft 394 kts 234°
2026-04-25 23:30 43.33370 -96.19589 34058 ft 394 kts 234°
2026-04-25 23:31 43.30124 -96.25590 34059 ft 394 kts 235°
2026-04-25 23:31 43.27584 -96.32230 34065 ft 394 kts 245°
2026-04-25 23:32 43.25345 -96.39097 34071 ft 394 kts 245°
2026-04-25 23:32 43.23087 -96.45979 34067 ft 396 kts 245°
2026-04-25 23:33 43.20819 -96.52889 34066 ft 399 kts 245°
2026-04-25 23:33 43.18924 -96.58645 34070 ft 399 kts 245°
2026-04-25 23:34 43.16639 -96.65570 34068 ft 399 kts 245°
2026-04-25 23:34 43.14350 -96.72488 34071 ft 399 kts 245°
2026-04-25 23:35 43.12061 -96.79407 34063 ft 399 kts 245°
2026-04-25 23:35 43.09770 -96.86323 34072 ft 399 kts 245°
2026-04-25 23:36 43.07464 -96.93241 34073 ft 400 kts 245°
2026-04-25 23:36 43.05150 -97.00158 34075 ft 400 kts 245°
2026-04-25 23:37 43.02840 -97.07070 34072 ft 400 kts 245°
2026-04-25 23:37 43.00526 -97.13979 34052 ft 400 kts 246°
2026-04-25 23:38 42.98200 -97.20889 34060 ft 401 kts 246°
2026-04-25 23:38 42.95869 -97.27806 34051 ft 401 kts 246°
2026-04-25 23:39 42.93532 -97.34715 34071 ft 401 kts 245°
2026-04-25 23:39 42.91191 -97.41618 34062 ft 401 kts 245°
2026-04-25 23:40 42.88847 -97.48518 34095 ft 401 kts 245°
2026-04-25 23:40 42.86501 -97.55415 34099 ft 401 kts 245°
2026-04-25 23:41 42.84154 -97.62306 34095 ft 401 kts 246°
2026-04-25 23:41 42.81817 -97.69136 34087 ft 400 kts 246°
2026-04-25 23:42 42.79450 -97.75994 34100 ft 400 kts 246°
2026-04-25 23:42 42.77087 -97.82848 34102 ft 400 kts 246°
2026-04-25 23:43 42.74724 -97.89702 34094 ft 400 kts 246°
2026-04-25 23:43 42.72351 -97.96554 34098 ft 400 kts 246°
2026-04-25 23:44 42.69976 -98.03406 34098 ft 401 kts 246°
2026-04-25 23:44 42.67598 -98.10256 34103 ft 401 kts 246°
2026-04-25 23:45 42.65210 -98.17096 34103 ft 401 kts 246°
2026-04-25 23:45 42.62818 -98.23937 34106 ft 401 kts 246°
2026-04-25 23:46 42.60423 -98.30781 34112 ft 401 kts 246°
2026-04-25 23:46 42.58029 -98.37612 34112 ft 401 kts 246°
2026-04-25 23:47 42.55628 -98.44445 34093 ft 401 kts 245°
2026-04-25 23:47 42.53226 -98.51266 34081 ft 401 kts 245°
2026-04-25 23:48 42.50815 -98.58081 34069 ft 401 kts 245°
2026-04-25 23:48 42.48395 -98.64892 34072 ft 401 kts 245°
2026-04-25 23:49 42.45772 -98.71562 34073 ft 402 kts 240°
2026-04-25 23:49 42.42880 -98.78034 34072 ft 402 kts 241°
2026-04-25 23:50 42.39987 -98.84496 34078 ft 401 kts 241°
2026-04-25 23:50 42.37094 -98.90954 34085 ft 402 kts 241°
2026-04-25 23:51 42.34202 -98.97415 34089 ft 402 kts 241°
2026-04-25 23:51 42.31307 -99.03872 34094 ft 402 kts 241°
2026-04-25 23:52 42.28403 -99.10314 34101 ft 401 kts 241°
2026-04-25 23:52 42.25520 -99.16692 34101 ft 400 kts 241°
2026-04-25 23:53 42.22617 -99.23105 34090 ft 401 kts 241°
2026-04-25 23:53 42.19710 -99.29523 34092 ft 401 kts 241°
2026-04-25 23:54 42.16793 -99.35942 34092 ft 401 kts 241°
2026-04-25 23:54 42.13869 -99.42350 34089 ft 401 kts 241°
2026-04-25 23:55 42.10945 -99.48761 34089 ft 401 kts 241°
2026-04-25 23:55 42.08022 -99.55154 34092 ft 401 kts 241°
2026-04-25 23:56 42.05088 -99.61545 34093 ft 401 kts 241°
2026-04-25 23:56 42.02156 -99.67931 34084 ft 401 kts 241°
2026-04-25 23:57 41.99220 -99.74312 34067 ft 401 kts 241°
2026-04-25 23:57 41.96273 -99.80687 34082 ft 402 kts 241°
2026-04-25 23:58 41.93328 -99.87056 34082 ft 400 kts 242°
2026-04-25 23:58 41.90391 -99.93394 34086 ft 400 kts 242°
2026-04-25 23:59 41.87453 -99.99731 34091 ft 399 kts 242°
2026-04-25 23:59 41.84512 -100.06056 34086 ft 400 kts 241°
2026-04-26 00:00 41.81561 -100.12370 34084 ft 400 kts 242°
2026-04-26 00:00 41.78611 -100.18676 34086 ft 399 kts 241°
2026-04-26 00:01 41.75667 -100.24963 34082 ft 396 kts 242°
2026-04-26 00:01 41.72761 -100.31160 34068 ft 395 kts 242°
2026-04-26 00:02 41.69839 -100.37372 34075 ft 394 kts 242°
2026-04-26 00:02 41.66917 -100.43569 34078 ft 394 kts 242°
2026-04-26 00:03 41.63997 -100.49760 34081 ft 394 kts 242°
2026-04-26 00:03 41.61072 -100.55942 34075 ft 393 kts 242°
2026-04-26 00:04 41.58159 -100.62084 34072 ft 388 kts 243°
2026-04-26 00:04 41.55273 -100.68158 34073 ft 387 kts 243°
2026-04-26 00:05 41.52392 -100.74213 34068 ft 386 kts 243°
2026-04-26 00:05 41.49623 -100.80344 34067 ft 385 kts 245°
2026-04-26 00:06 41.46927 -100.86517 34038 ft 385 kts 245°
2026-04-26 00:06 41.44218 -100.92650 34066 ft 383 kts 245°
2026-04-26 00:07 41.41497 -100.98755 34058 ft 383 kts 245°
2026-04-26 00:07 41.38769 -101.04851 34057 ft 383 kts 245°
2026-04-26 00:08 41.36034 -101.10935 34056 ft 383 kts 245°
2026-04-26 00:08 41.33297 -101.17011 34058 ft 383 kts 245°
2026-04-26 00:09 41.30569 -101.23088 34052 ft 383 kts 245°
2026-04-26 00:09 41.27832 -101.29163 34055 ft 383 kts 245°
2026-04-26 00:10 41.25118 -101.35157 34049 ft 379 kts 245°
2026-04-26 00:10 41.22386 -101.41185 34047 ft 378 kts 245°
2026-04-26 00:11 41.19674 -101.47162 34021 ft 378 kts 245°
2026-04-26 00:11 41.16975 -101.53097 34035 ft 378 kts 245°
2026-04-26 00:12 41.14252 -101.59068 34036 ft 378 kts 245°
2026-04-26 00:12 41.11534 -101.65037 34029 ft 378 kts 245°
2026-04-26 00:13 41.08801 -101.71000 34026 ft 379 kts 244°
2026-04-26 00:13 41.06060 -101.76962 34024 ft 379 kts 244°
2026-04-26 00:14 41.03323 -101.82927 34024 ft 379 kts 244°
2026-04-26 00:14 41.00587 -101.88887 34028 ft 379 kts 244°
2026-04-26 00:15 40.97845 -101.94842 34013 ft 379 kts 244°
2026-04-26 00:15 40.95093 -102.00789 34018 ft 379 kts 244°
2026-04-26 00:16 40.92334 -102.06733 33984 ft 380 kts 244°
2026-04-26 00:16 40.89570 -102.12703 34016 ft 381 kts 243°
2026-04-26 00:17 40.86795 -102.18674 34013 ft 381 kts 243°
2026-04-26 00:17 40.84023 -102.24642 34010 ft 381 kts 244°
2026-04-26 00:18 40.81256 -102.30617 34010 ft 381 kts 243°
2026-04-26 00:18 40.78468 -102.36574 34008 ft 381 kts 243°
2026-04-26 00:19 40.75671 -102.42518 34011 ft 381 kts 243°
2026-04-26 00:19 40.72881 -102.48442 34002 ft 380 kts 243°
2026-04-26 00:20 40.70566 -102.53360 34001 ft 380 kts 243°
2026-04-26 00:20 40.67785 -102.59278 34002 ft 380 kts 243°
2026-04-26 00:21 40.64998 -102.65189 33954 ft 380 kts 243°
2026-04-26 00:21 40.62191 -102.71111 33991 ft 382 kts 243°
2026-04-26 00:22 40.59377 -102.77047 33998 ft 382 kts 243°
2026-04-26 00:22 40.56574 -102.82967 33989 ft 381 kts 242°
2026-04-26 00:23 40.53775 -102.88871 33989 ft 380 kts 242°
2026-04-26 00:23 40.50967 -102.94764 33986 ft 380 kts 242°
2026-04-26 00:24 40.48152 -103.00651 33983 ft 380 kts 242°
2026-04-26 00:24 40.45336 -103.06538 33983 ft 380 kts 242°
2026-04-26 00:25 40.42517 -103.12416 33990 ft 381 kts 242°
2026-04-26 00:25 40.39717 -103.18248 33977 ft 380 kts 242°
2026-04-26 00:26 40.36903 -103.24103 33978 ft 379 kts 242°
2026-04-26 00:26 40.34077 -103.29984 33975 ft 383 kts 242°
2026-04-26 00:27 40.31227 -103.35883 33967 ft 383 kts 242°
2026-04-26 00:27 40.28372 -103.41779 33963 ft 383 kts 242°
2026-04-26 00:28 40.25516 -103.47670 33964 ft 383 kts 242°
2026-04-26 00:28 40.22660 -103.53556 33951 ft 383 kts 242°
2026-04-26 00:29 40.19810 -103.59432 33956 ft 382 kts 242°
2026-04-26 00:29 40.16952 -103.65304 33947 ft 383 kts 242°
2026-04-26 00:30 40.14087 -103.71164 33944 ft 383 kts 242°
2026-04-26 00:30 40.11218 -103.77020 33944 ft 382 kts 242°
2026-04-26 00:31 40.08355 -103.82876 33933 ft 383 kts 242°
2026-04-26 00:31 40.05483 -103.88731 33900 ft 383 kts 242°
2026-04-26 00:32 40.02611 -103.94569 33899 ft 382 kts 242°
2026-04-26 00:32 39.98298 -104.03312 33898 ft 382 kts 241°
2026-04-26 00:33 39.95422 -104.09142 33893 ft 382 kts 241°
2026-04-26 00:33 39.92539 -104.14963 33898 ft 382 kts 241°
2026-04-26 00:34 39.89675 -104.20736 33909 ft 382 kts 241°
2026-04-26 00:34 39.86790 -104.26541 33915 ft 381 kts 241°
2026-04-26 00:35 39.83910 -104.32323 33925 ft 381 kts 241°
2026-04-26 00:35 39.81027 -104.38105 33935 ft 381 kts 241°
2026-04-26 00:36 39.78152 -104.43886 33942 ft 381 kts 241°
2026-04-26 00:36 39.75271 -104.49657 33944 ft 381 kts 241°
2026-04-26 00:37 39.72381 -104.55425 33944 ft 381 kts 241°
2026-04-26 00:37 39.69485 -104.61192 33937 ft 381 kts 241°
2026-04-26 00:38 39.66607 -104.66965 33914 ft 381 kts 242°
2026-04-26 00:38 39.63748 -104.72748 33915 ft 381 kts 242°
2026-04-26 00:39 39.60893 -104.78529 33914 ft 381 kts 242°
2026-04-26 00:39 39.58032 -104.84305 33917 ft 381 kts 241°
2026-04-26 00:40 39.55163 -104.90076 33914 ft 381 kts 241°
2026-04-26 00:40 39.52288 -104.95842 33916 ft 381 kts 241°
2026-04-26 00:41 39.49436 -105.01559 33852 ft 380 kts 242°
2026-04-26 00:41 39.46565 -105.07323 33880 ft 381 kts 242°
2026-04-26 00:42 39.43689 -105.13087 33873 ft 381 kts 241°
2026-04-26 00:42 39.40803 -105.18850 33875 ft 382 kts 242°
2026-04-26 00:43 39.37909 -105.24603 33859 ft 382 kts 242°
2026-04-26 00:43 39.35014 -105.30350 33848 ft 381 kts 241°
2026-04-26 00:44 39.32123 -105.36088 33821 ft 381 kts 241°
2026-04-26 00:44 39.29239 -105.41820 33820 ft 381 kts 241°
2026-04-26 00:45 39.26343 -105.47547 33821 ft 381 kts 241°
2026-04-26 00:45 39.23441 -105.53261 33774 ft 381 kts 241°
2026-04-26 00:46 39.20546 -105.58970 33770 ft 380 kts 240°
2026-04-26 00:46 39.17650 -105.64659 33694 ft 379 kts 240°
2026-04-26 00:47 39.14734 -105.70393 33750 ft 385 kts 240°
2026-04-26 00:47 39.11787 -105.76166 33740 ft 386 kts 240°
2026-04-26 00:48 39.08832 -105.81936 33736 ft 386 kts 240°
2026-04-26 00:48 39.05878 -105.87706 33736 ft 386 kts 240°
2026-04-26 00:49 39.02941 -105.93437 33741 ft 386 kts 239°
2026-04-26 00:49 38.99982 -105.99195 33841 ft 386 kts 239°
2026-04-26 00:50 38.97005 -106.04970 33869 ft 389 kts 239°
2026-04-26 00:50 38.94018 -106.10765 33892 ft 389 kts 239°
2026-04-26 00:51 38.91028 -106.16561 33909 ft 389 kts 239°
2026-04-26 00:51 38.88032 -106.22345 33887 ft 389 kts 239°
2026-04-26 00:52 38.85030 -106.28130 33889 ft 390 kts 239°
2026-04-26 00:52 38.82030 -106.33904 33873 ft 389 kts 239°
2026-04-26 00:53 38.79033 -106.39653 33850 ft 387 kts 239°
2026-04-26 00:53 38.76044 -106.45376 33834 ft 386 kts 239°
2026-04-26 00:54 38.73059 -106.51096 33812 ft 386 kts 239°
2026-04-26 00:54 38.70074 -106.56818 33789 ft 386 kts 239°
2026-04-26 00:55 38.67089 -106.62529 33803 ft 386 kts 239°
2026-04-26 00:55 38.64092 -106.68230 33788 ft 386 kts 238°
2026-04-26 00:56 38.61095 -106.73917 33786 ft 385 kts 239°
2026-04-26 00:56 38.58106 -106.79602 33747 ft 385 kts 238°
2026-04-26 00:57 38.55125 -106.85253 33776 ft 383 kts 238°
2026-04-26 00:57 38.53633 -106.88071 33922 ft 383 kts 238°
2026-04-26 00:57 38.52140 -106.90888 33918 ft 383 kts 238°
2026-04-26 00:58 38.49155 -106.96514 33925 ft 383 kts 238°
2026-04-26 00:58 38.46166 -107.02135 33913 ft 383 kts 238°
2026-04-26 00:59 38.43202 -107.07780 33893 ft 383 kts 239°
2026-04-26 00:59 38.40277 -107.13461 33858 ft 383 kts 239°
2026-04-26 01:00 38.37349 -107.19138 33829 ft 383 kts 239°
2026-04-26 01:00 38.34410 -107.24799 33802 ft 383 kts 239°
2026-04-26 01:01 38.31464 -107.30452 33771 ft 383 kts 239°
2026-04-26 01:01 38.28538 -107.36077 33756 ft 383 kts 239°
2026-04-26 01:02 38.25590 -107.41737 33776 ft 385 kts 239°
2026-04-26 01:02 38.22613 -107.47435 33770 ft 388 kts 239°
2026-04-26 01:03 38.19616 -107.53150 33771 ft 389 kts 238°
2026-04-26 01:03 38.16613 -107.58863 33769 ft 388 kts 238°
2026-04-26 01:04 38.13609 -107.64570 33781 ft 389 kts 238°
2026-04-26 01:04 38.10607 -107.70276 33782 ft 388 kts 238°
2026-04-26 01:05 38.07599 -107.75986 33777 ft 389 kts 238°
2026-04-26 01:05 38.04584 -107.81687 33775 ft 389 kts 238°
2026-04-26 01:06 38.01563 -107.87375 33769 ft 389 kts 238°
2026-04-26 01:06 37.98548 -107.93067 33797 ft 389 kts 238°
2026-04-26 01:07 37.95531 -107.98755 34019 ft 389 kts 238°
2026-04-26 01:07 37.92516 -108.04416 34000 ft 386 kts 238°
2026-04-26 01:08 37.89511 -108.10039 33952 ft 385 kts 238°
2026-04-26 01:08 37.87016 -108.14708 33924 ft 385 kts 238°
2026-04-26 01:09 37.83522 -108.21240 33859 ft 386 kts 238°
2026-04-26 01:09 37.80512 -108.26865 33814 ft 386 kts 238°
2026-04-26 01:10 37.77986 -108.31569 33779 ft 386 kts 238°
2026-04-26 01:10 37.74973 -108.37177 33797 ft 385 kts 238°
2026-04-26 01:11 37.71960 -108.42779 33801 ft 386 kts 238°
2026-04-26 01:11 37.68949 -108.48366 33772 ft 388 kts 238°
2026-04-26 01:12 37.65905 -108.54003 33771 ft 389 kts 238°
2026-04-26 01:12 37.62855 -108.59633 33765 ft 389 kts 238°
2026-04-26 01:13 37.59803 -108.65251 33790 ft 388 kts 237°
2026-04-26 01:13 37.56758 -108.70858 33803 ft 387 kts 237°
2026-04-26 01:14 37.53716 -108.76463 33718 ft 387 kts 237°
2026-04-26 01:14 37.50662 -108.82068 33722 ft 389 kts 237°
2026-04-26 01:15 37.47599 -108.87677 33704 ft 389 kts 237°
2026-04-26 01:15 37.44524 -108.93293 33703 ft 389 kts 237°
2026-04-26 01:16 37.41455 -108.98902 33680 ft 389 kts 237°
2026-04-26 01:16 37.38379 -109.04506 33682 ft 389 kts 237°
2026-04-26 01:17 37.35301 -109.10106 33684 ft 389 kts 237°
2026-04-26 01:17 37.32243 -109.15664 33673 ft 390 kts 237°
2026-04-26 01:18 37.29159 -109.21267 33656 ft 390 kts 237°
2026-04-26 01:18 37.26065 -109.26879 33665 ft 391 kts 237°
2026-04-26 01:19 37.22968 -109.32479 33675 ft 391 kts 237°
2026-04-26 01:19 37.19872 -109.38086 33673 ft 391 kts 237°
2026-04-26 01:20 37.16770 -109.43684 33673 ft 391 kts 237°
2026-04-26 01:20 37.13663 -109.49269 33670 ft 390 kts 237°
2026-04-26 01:21 37.10565 -109.54841 33669 ft 389 kts 237°
2026-04-26 01:21 37.07464 -109.60396 33683 ft 389 kts 237°
2026-04-26 01:22 37.04361 -109.65951 33684 ft 389 kts 237°
2026-04-26 01:22 37.01272 -109.71458 33681 ft 389 kts 237°
2026-04-26 01:23 36.98165 -109.77009 33683 ft 389 kts 237°
2026-04-26 01:23 36.95053 -109.82551 33691 ft 389 kts 237°
2026-04-26 01:24 36.91950 -109.88073 33698 ft 388 kts 237°
2026-04-26 01:24 36.88854 -109.93580 33698 ft 388 kts 237°
2026-04-26 01:25 36.85744 -109.99082 33700 ft 388 kts 237°
2026-04-26 01:25 36.82633 -110.04586 33701 ft 388 kts 237°
2026-04-26 01:26 36.79524 -110.10089 33709 ft 388 kts 237°
2026-04-26 01:26 36.76410 -110.15582 33708 ft 388 kts 237°
2026-04-26 01:27 36.73284 -110.21077 33720 ft 388 kts 237°
2026-04-26 01:27 36.70159 -110.26568 33728 ft 389 kts 237°
2026-04-26 01:28 36.67032 -110.32057 33729 ft 389 kts 237°
2026-04-26 01:28 36.63899 -110.37546 33736 ft 389 kts 237°
2026-04-26 01:29 36.60770 -110.43030 33739 ft 389 kts 237°
2026-04-26 01:29 36.57631 -110.48508 33759 ft 388 kts 237°
2026-04-26 01:30 36.54507 -110.53962 33748 ft 387 kts 236°
2026-04-26 01:30 36.51375 -110.59398 33753 ft 387 kts 236°
2026-04-26 01:31 36.48257 -110.64791 33742 ft 387 kts 236°
2026-04-26 01:31 36.45118 -110.70218 33743 ft 387 kts 236°
2026-04-26 01:32 36.41985 -110.75649 33753 ft 387 kts 236°
2026-04-26 01:32 36.38848 -110.81074 33767 ft 387 kts 236°
2026-04-26 01:33 36.35717 -110.86490 33752 ft 386 kts 236°
2026-04-26 01:33 36.32585 -110.91900 33757 ft 386 kts 236°
2026-04-26 01:34 36.29448 -110.97301 33738 ft 385 kts 236°
2026-04-26 01:34 36.26327 -111.02657 33758 ft 382 kts 236°
2026-04-26 01:35 36.23213 -111.07996 33758 ft 382 kts 236°
2026-04-26 01:35 36.20102 -111.13328 33758 ft 382 kts 236°
2026-04-26 01:36 36.16987 -111.18658 33758 ft 383 kts 236°
2026-04-26 01:37 36.12302 -111.26658 33757 ft 383 kts 238°
2026-04-26 01:37 36.09651 -111.32351 33750 ft 382 kts 241°
2026-04-26 01:38 36.07015 -111.38054 33750 ft 382 kts 241°
2026-04-26 01:38 36.04367 -111.43741 33753 ft 382 kts 241°
2026-04-26 01:39 36.01738 -111.49396 33753 ft 382 kts 241°
2026-04-26 01:39 35.99099 -111.55088 33776 ft 382 kts 241°
2026-04-26 01:40 35.96452 -111.60771 33778 ft 382 kts 241°
2026-04-26 01:40 35.93804 -111.66454 33746 ft 382 kts 240°
2026-04-26 01:41 35.91154 -111.72117 33785 ft 380 kts 240°
2026-04-26 01:41 35.88515 -111.77762 33812 ft 380 kts 241°
2026-04-26 01:42 35.85871 -111.83409 33819 ft 380 kts 240°
2026-04-26 01:42 35.83223 -111.89058 33819 ft 380 kts 240°
2026-04-26 01:43 35.80641 -111.94746 33853 ft 381 kts 241°
2026-04-26 01:43 35.78104 -112.00417 33852 ft 381 kts 241°
2026-04-26 01:44 35.75537 -112.06117 33852 ft 381 kts 241°
2026-04-26 01:44 35.74249 -112.08976 33546 ft 379 kts 241°
2026-04-26 01:44 35.72977 -112.11796 33869 ft 375 kts 241°
2026-04-26 01:45 35.70357 -112.17418 33914 ft 379 kts 240°
2026-04-26 01:45 35.67695 -112.23009 33922 ft 379 kts 240°
2026-04-26 01:46 35.65045 -112.28608 33922 ft 379 kts 240°
2026-04-26 01:46 35.62401 -112.34208 33919 ft 379 kts 240°
2026-04-26 01:47 35.59762 -112.39811 33916 ft 379 kts 240°
2026-04-26 01:47 35.57145 -112.45421 33915 ft 379 kts 240°
2026-04-26 01:48 35.54539 -112.51044 33892 ft 379 kts 240°
2026-04-26 01:48 35.51932 -112.56640 33890 ft 377 kts 240°
2026-04-26 01:49 35.49341 -112.62173 33886 ft 376 kts 240°
2026-04-26 01:49 35.46735 -112.67738 33883 ft 376 kts 240°
2026-04-26 01:50 35.44132 -112.73296 33874 ft 376 kts 240°
2026-04-26 01:50 35.41515 -112.78848 33888 ft 376 kts 240°
2026-04-26 01:51 35.38904 -112.84381 33871 ft 375 kts 240°
2026-04-26 01:51 35.36292 -112.89915 33852 ft 375 kts 240°
2026-04-26 01:52 35.33680 -112.95444 33856 ft 375 kts 240°
2026-04-26 01:52 35.31068 -113.00965 33842 ft 375 kts 240°
2026-04-26 01:53 35.28454 -113.06483 33842 ft 375 kts 239°
2026-04-26 01:53 35.25833 -113.11996 33837 ft 374 kts 239°
2026-04-26 01:54 35.23217 -113.17494 33829 ft 374 kts 239°
2026-04-26 01:54 35.20601 -113.22985 33826 ft 374 kts 239°
2026-04-26 01:55 35.17983 -113.28470 33809 ft 374 kts 239°
2026-04-26 01:55 35.15363 -113.33951 33809 ft 373 kts 239°
2026-04-26 01:56 35.12747 -113.39427 33787 ft 373 kts 239°
2026-04-26 01:56 35.10160 -113.44842 33796 ft 370 kts 239°
2026-04-26 01:57 35.07552 -113.50263 33773 ft 370 kts 239°
2026-04-26 01:57 35.04941 -113.55671 33780 ft 370 kts 239°
2026-04-26 01:58 35.02336 -113.61080 33780 ft 370 kts 239°
2026-04-26 01:58 34.99734 -113.66486 33770 ft 370 kts 239°
2026-04-26 01:59 34.97121 -113.71892 33771 ft 370 kts 239°
2026-04-26 01:59 34.94503 -113.77290 33766 ft 369 kts 239°
2026-04-26 02:00 34.91896 -113.82668 33761 ft 368 kts 239°
2026-04-26 02:00 34.89290 -113.88044 33755 ft 369 kts 239°
2026-04-26 02:01 34.86679 -113.93423 33759 ft 369 kts 239°
2026-04-26 02:01 34.83988 -113.98745 33757 ft 369 kts 238°
2026-04-26 02:02 34.81709 -114.03130 33749 ft 369 kts 237°
2026-04-26 02:02 34.78967 -114.08403 33760 ft 368 kts 237°
2026-04-26 02:03 34.76242 -114.13662 33749 ft 367 kts 237°
2026-04-26 02:03 34.73522 -114.18915 33758 ft 367 kts 237°
2026-04-26 02:04 34.70810 -114.24147 33769 ft 365 kts 237°
2026-04-26 02:04 34.68110 -114.29353 33775 ft 364 kts 237°
2026-04-26 02:05 34.65408 -114.34553 33782 ft 364 kts 237°
2026-04-26 02:05 34.62548 -114.39610 33762 ft 364 kts 230°
2026-04-26 02:06 34.59205 -114.44235 33751 ft 365 kts 230°
2026-04-26 02:06 34.55888 -114.48835 33760 ft 364 kts 230°
2026-04-26 02:07 34.52521 -114.53486 33764 ft 364 kts 230°
2026-04-26 02:07 34.49198 -114.58070 33755 ft 364 kts 230°
2026-04-26 02:08 34.45850 -114.62683 33750 ft 364 kts 230°
2026-04-26 02:08 34.42497 -114.67288 33759 ft 364 kts 230°
2026-04-26 02:09 34.39140 -114.71893 33757 ft 364 kts 230°
2026-04-26 02:09 34.35793 -114.76480 33756 ft 363 kts 230°
2026-04-26 02:10 34.32457 -114.81060 33757 ft 363 kts 230°
2026-04-26 02:10 34.29120 -114.85632 33769 ft 362 kts 230°
2026-04-26 02:11 34.25776 -114.90189 33771 ft 362 kts 230°
2026-04-26 02:11 34.22434 -114.94744 33768 ft 362 kts 230°
2026-04-26 02:12 34.19092 -114.99295 33768 ft 362 kts 230°
2026-04-26 02:12 34.15750 -115.03844 33784 ft 361 kts 229°
2026-04-26 02:13 34.12411 -115.08374 33779 ft 361 kts 229°
2026-04-26 02:13 34.09071 -115.12908 33779 ft 361 kts 229°
2026-04-26 02:14 34.05731 -115.17434 33784 ft 361 kts 229°
2026-04-26 02:14 34.02390 -115.21956 33794 ft 361 kts 230°
2026-04-26 02:15 33.99029 -115.26497 33799 ft 366 kts 229°
2026-04-26 02:15 33.95626 -115.31094 33802 ft 368 kts 229°
2026-04-26 02:16 33.92219 -115.35709 33802 ft 370 kts 229°
2026-04-26 02:16 33.88797 -115.40340 33821 ft 371 kts 229°
2026-04-26 02:17 33.85393 -115.44942 33818 ft 371 kts 229°
2026-04-26 02:17 33.81961 -115.49570 33768 ft 369 kts 229°
2026-04-26 02:17 33.80258 -115.51869 33011 ft 369 kts 229°
2026-04-26 02:18 33.78543 -115.54185 32114 ft 373 kts 229°
2026-04-26 02:18 33.76809 -115.56523 31221 ft 377 kts 229°
2026-04-26 02:18 33.75053 -115.58887 30301 ft 381 kts 229°
2026-04-26 02:18 33.73275 -115.61278 29278 ft 386 kts 229°
2026-04-26 02:19 33.71472 -115.63700 28162 ft 392 kts 229°
2026-04-26 02:19 33.69645 -115.66149 27138 ft 396 kts 229°
2026-04-26 02:19 33.67797 -115.68603 26158 ft 396 kts 229°
2026-04-26 02:19 33.65907 -115.71096 25081 ft 400 kts 229°
2026-04-26 02:20 33.64021 -115.73580 24294 ft 406 kts 229°
2026-04-26 02:20 33.62131 -115.76120 23991 ft 410 kts 232°
2026-04-26 02:20 33.60467 -115.78915 23834 ft 412 kts 235°
2026-04-26 02:20 33.58838 -115.81741 23806 ft 414 kts 235°
2026-04-26 02:21 33.57200 -115.84585 23813 ft 414 kts 235°
2026-04-26 02:21 33.55564 -115.87424 23814 ft 414 kts 235°
2026-04-26 02:21 33.53921 -115.90266 23835 ft 414 kts 235°
2026-04-26 02:21 33.52279 -115.93100 23835 ft 414 kts 235°
2026-04-26 02:22 33.50637 -115.95932 23846 ft 414 kts 234°
2026-04-26 02:22 33.48993 -115.98771 23835 ft 414 kts 235°
2026-04-26 02:22 33.47358 -116.01593 23569 ft 409 kts 235°
2026-04-26 02:22 33.45744 -116.04376 22729 ft 405 kts 234°
2026-04-26 02:23 33.44141 -116.07136 21871 ft 402 kts 234°
2026-04-26 02:23 33.42551 -116.09867 21012 ft 398 kts 234°
2026-04-26 02:23 33.40974 -116.12578 20203 ft 395 kts 234°
2026-04-26 02:23 33.39413 -116.15259 19512 ft 390 kts 234°
2026-04-26 02:24 33.37865 -116.17916 19019 ft 389 kts 234°
2026-04-26 02:24 33.36318 -116.20574 18848 ft 390 kts 234°
2026-04-26 02:24 33.34669 -116.23145 18842 ft 390 kts 227°
2026-04-26 02:24 33.32660 -116.25327 18842 ft 392 kts 218°
2026-04-26 02:25 33.30321 -116.27022 18872 ft 396 kts 210°
2026-04-26 02:25 33.27848 -116.28469 18875 ft 395 kts 210°
2026-04-26 02:25 33.25435 -116.29873 18841 ft 376 kts 210°
2026-04-26 02:25 33.23154 -116.31191 18705 ft 349 kts 210°
2026-04-26 02:26 33.21066 -116.32391 18444 ft 318 kts 210°
2026-04-26 02:26 33.19132 -116.33510 17799 ft 302 kts 211°
2026-04-26 02:26 33.17294 -116.34588 16875 ft 295 kts 211°
2026-04-26 02:26 33.15441 -116.35683 15919 ft 291 kts 210°
2026-04-26 02:27 33.13660 -116.36735 15045 ft 287 kts 210°
2026-04-26 02:27 33.11883 -116.37783 14138 ft 284 kts 210°
2026-04-26 02:27 33.10123 -116.38818 13244 ft 281 kts 209°
2026-04-26 02:27 33.08373 -116.39842 12346 ft 278 kts 209°
2026-04-26 02:28 33.06636 -116.40854 12027 ft 279 kts 209°
2026-04-26 02:28 33.04882 -116.41876 11897 ft 281 kts 209°
2026-04-26 02:28 33.03128 -116.42899 11899 ft 282 kts 209°
2026-04-26 02:28 33.01370 -116.43927 11900 ft 281 kts 210°
2026-04-26 02:29 32.99751 -116.45203 11914 ft 278 kts 221°
2026-04-26 02:29 32.98292 -116.46683 11859 ft 269 kts 221°
2026-04-26 02:29 32.96904 -116.48083 11585 ft 255 kts 222°
2026-04-26 02:29 32.95562 -116.49440 11026 ft 251 kts 222°
2026-04-26 02:30 32.94237 -116.50778 10512 ft 249 kts 221°
2026-04-26 02:30 32.92917 -116.52109 10034 ft 249 kts 221°
2026-04-26 02:30 32.91605 -116.53433 9639 ft 247 kts 221°
2026-04-26 02:30 32.90300 -116.54750 9245 ft 245 kts 221°
2026-04-26 02:31 32.89001 -116.56061 8855 ft 243 kts 221°
2026-04-26 02:31 32.87708 -116.57362 8630 ft 247 kts 222°
2026-04-26 02:31 32.86374 -116.58708 8280 ft 253 kts 222°
2026-04-26 02:31 32.85026 -116.60067 7998 ft 254 kts 222°
2026-04-26 02:32 32.83668 -116.61437 7962 ft 257 kts 222°
2026-04-26 02:32 32.82297 -116.62818 7977 ft 258 kts 222°
2026-04-26 02:32 32.80923 -116.64199 7979 ft 259 kts 222°
2026-04-26 02:32 32.79546 -116.65580 7981 ft 259 kts 222°
2026-04-26 02:33 32.78171 -116.66965 7972 ft 259 kts 224°
2026-04-26 02:33 32.77006 -116.68562 7652 ft 255 kts 238°
2026-04-26 02:33 32.76139 -116.70392 7229 ft 254 kts 241°
2026-04-26 02:33 32.75285 -116.72219 6936 ft 249 kts 242°
2026-04-26 02:34 32.74456 -116.73980 6809 ft 239 kts 242°
2026-04-26 02:34 32.73662 -116.75661 6687 ft 228 kts 241°
2026-04-26 02:34 32.72898 -116.77273 6460 ft 222 kts 242°
2026-04-26 02:34 32.72147 -116.78854 6218 ft 216 kts 242°
2026-04-26 02:35 32.71412 -116.80398 5970 ft 213 kts 242°
2026-04-26 02:35 32.70710 -116.81935 5692 ft 211 kts 246°
2026-04-26 02:35 32.70190 -116.83569 5457 ft 211 kts 250°
2026-04-26 02:35 32.69691 -116.85178 5121 ft 207 kts 251°
2026-04-26 02:36 32.69198 -116.86760 5013 ft 201 kts 250°
2026-04-26 02:36 32.68719 -116.88293 4735 ft 199 kts 250°
2026-04-26 02:36 32.68251 -116.89850 4384 ft 200 kts 251°
2026-04-26 02:36 32.67793 -116.91405 4099 ft 199 kts 251°
2026-04-26 02:37 32.67393 -116.92967 3983 ft 199 kts 261°
2026-04-26 02:37 32.67417 -116.94591 3896 ft 196 kts 280°
2026-04-26 02:37 32.67789 -116.96154 3598 ft 197 kts 285°
2026-04-26 02:37 32.68174 -116.97704 3384 ft 190 kts 284°
2026-04-26 02:38 32.68525 -116.99122 3284 ft 171 kts 283°
2026-04-26 02:38 32.68851 -117.00440 3215 ft 161 kts 282°
2026-04-26 02:38 32.69154 -117.01672 3116 ft 156 kts 282°
2026-04-26 02:38 32.69454 -117.02915 2881 ft 156 kts 283°
2026-04-26 02:39 32.69751 -117.04137 2669 ft 151 kts 283°
2026-04-26 02:39 32.70042 -117.05329 2366 ft 149 kts 282°
2026-04-26 02:39 32.70324 -117.06478 2104 ft 143 kts 282°
2026-04-26 02:39 32.70600 -117.07608 1982 ft 143 kts 283°
2026-04-26 02:40 32.70874 -117.08739 1886 ft 143 kts 283°
2026-04-26 02:40 32.71152 -117.09878 1637 ft 145 kts 283°
2026-04-26 02:40 32.71433 -117.11017 1392 ft 142 kts 283°
2026-04-26 02:40 32.71712 -117.12111 1164 ft 136 kts 282°
2026-04-26 02:41 32.71973 -117.13180 1005 ft 133 kts 283°
2026-04-26 02:41 32.72214 -117.14258 785 ft 140 kts 285°
2026-04-26 02:41 32.72477 -117.15392 641 ft 143 kts 286°
2026-04-26 02:41 32.72758 -117.16524 380 ft 142 kts 287°
2026-04-26 02:42 32.73038 -117.17653 105 ft 141 kts 285°
2026-04-26 02:42 32.73292 -117.18708 27 ft 123 kts 287°
2026-04-26 02:42 32.73488 -117.19502 26 ft 74 kts 286°
2026-04-26 02:42 32.73587 -117.19911 27 ft 39 kts 286°
2026-04-26 02:43 32.73598 -117.20207 25 ft 5 kts 200°
2026-04-26 02:43 32.73576 -117.20210 25 ft 2 kts 179°
2026-04-26 02:43 32.73569 -117.20208 25 ft 0 kts 167°
2026-04-26 02:44 32.73558 -117.20208 25 ft 6 kts 182°
2026-04-26 02:44 32.73539 -117.20218 26 ft 0 kts 204°
2026-04-26 02:44 32.73503 -117.20237 24 ft 10 kts 202°
2026-04-26 02:44 32.73482 -117.20247 24 ft 1 kts 199°
2026-04-26 02:45 32.73451 -117.20258 23 ft 1 kts 197°
2026-04-26 02:45 32.73451 -117.20259 23 ft 0 kts 197°
2026-04-26 02:46 32.73450 -117.20259 23 ft 1 kts 197°
2026-04-26 02:46 32.73427 -117.20267 22 ft 4 kts 195°
2026-04-26 02:46 32.73403 -117.20275 22 ft 3 kts 196°
2026-04-26 02:46 32.73389 -117.20287 22 ft 2 kts 227°
2026-04-26 02:47 32.73387 -117.20295 22 ft 0 kts 248°
2026-04-26 02:47 32.73387 -117.20297 22 ft 2 kts 259°
2026-04-26 02:47 32.73382 -117.20327 23 ft 3 kts 259°
2026-04-26 02:47 32.73380 -117.20343 23 ft 0 kts 260°